Location: Songkhla
(7.2000°N, 100.6000°E)
Time: 20:33:01
(UTC+07:00)

Daily predictions for brighter satellites

Satellite Brightness Start Highest point End
(mag) Time Altitude Azimuth Time Altitude Azimuth Time Altitude Azimuth
Ariane H10+ 0.8 18:39:38 10° W 18:41:44 56° S 18:46:03 10° ESE
Cosmos 1707 Rocket 3.8 18:41:38 10° S 18:45:58 51° E 18:50:15 10° NNE
ALOS 3.8 18:43:24 10° ESE 18:46:26 17° ENE 18:49:27 10° NE
ARIANE 5 R/B 3.8 18:32:17 10° W 18:47:21 42° SSW 18:50:44 10° ESE
Cosmos 2227 Rocket 2.7 18:42:14 10° NNW 18:47:48 65° WSW 18:53:22 10° S
Fermi 3.8 18:49:19 10° WNW 18:53:23 73° NNE 18:57:24 11° ESE
OAO 3 Copernicus 4.3 18:49:04 10° NW 18:54:09 90° SSW 18:59:14 10° SE
Cosmos 2082 4.2 18:49:58 10° NNW 18:55:32 66° WSW 19:01:09 10° S
Cosmos 1992 Rocket 3.9 18:57:36 10° S 19:02:48 72° ESE 19:08:00 10° NNE
Meteor 2-3 Rocket 3.9 18:58:43 10° N 19:04:21 56° E 19:10:01 10° SSE
GPS 2-04 Rocket1 4.0 19:02:02 10° NNW 19:04:55 23° NE 19:07:13 13° E
GPS 2-15 Rocket1 3.6 19:01:39 10° WNW 19:06:09 51° NNE 19:09:54 15° E
Maqsat-B 2.7 19:04:08 10° W 19:07:32 83° N 19:12:39 13° E
Tiangong 1 1.2 19:07:21 10° SSW 19:10:06 42° SE 19:12:09 15° ENE
Cosmos 1892 2.8 19:08:28 10° N 19:12:11 51° E 19:15:56 10° SSE
H-2A R/B 4.2 19:15:00 19° E 19:15:52 20° ENE 19:18:45 10° NNE
Ariane H10 4.5 19:11:41 10° WSW 19:16:25 41° SSE 19:30:07 18° ESE
Ariane H10 4.5 19:11:41 10° WSW 19:16:25 41° SSE 19:30:06 18° ESE
FREGAT/IRIS 2.6 19:17:15 12° SSE 19:20:01 60° E 19:22:59 10° N
FENGYUN 3A 3.9 19:16:12 10° SSE 19:21:20 47° ENE 19:26:26 10° N
Cosmos 1869 Rocket 3.7 19:19:07 10° N 19:23:26 51° E 19:27:36 11° SSE
Cosmos 1869 3.8 19:21:07 10° SSW 19:24:59 62° W 19:28:52 10° N
Cosmos 2142 Rocket 4.4 19:21:08 10° S 19:27:16 86° E 19:33:23 10° N
ARIANE 5 R/B 3.2 19:26:46 10° WSW 19:29:38 38° SSE 19:33:32 23° ESE
NOSS 3-1 (C) 3.7 19:27:19 10° S 19:32:14 32° ESE 19:37:12 10° NE
Spot 2 Rocket 4.3 19:34:23 28° E 19:35:18 30° ENE 19:39:42 10° NNE
SJ-6B 2.7 19:32:08 13° SSE 19:35:29 86° E 19:39:25 10° N
GRACE-1 3.6 19:33:02 10° N 19:35:43 77° E 19:35:48 76° ESE
OTV 4 1.7 19:33:15 10° NNW 19:35:30 27° NNE 19:35:30 27° NNE
GRACE-2 3.6 19:33:24 10° N 19:36:03 76° E 19:36:03 76° E
USA 229 DEB 4.1 19:31:23 10° SSW 19:38:06 65° WNW 19:44:51 10° NNE
USA 229 4.1 19:31:29 10° SSW 19:38:13 66° WNW 19:44:58 10° NNE
Cosmos 2242 Rocket 3.9 19:35:55 10° S 19:40:27 68° W 19:44:56 10° N
ARIANE 5 DEB (SYLDA) 4.1 19:35:30 10° WSW 19:41:15 27° SSW 19:42:15 24° S
HJ-1C 3.3 19:41:25 50° SSE 19:42:12 75° E 19:45:37 10° N
Lacrosse 4 Rocket 3.6 19:45:00 10° NNE 19:46:10 14° NE 19:46:10 14° NE
ARIANE 3 DEB 4.1 19:47:55 10° WSW 19:50:23 27° S 19:50:23 27° S
Helios 1B rocket 2.2 19:46:38 10° NNE 19:50:43 72° ESE 19:52:30 32° S
Cosmos 2026 Rocket 4.1 19:49:13 10° NNE 19:55:04 48° E 19:56:02 44° ESE
Sea Lan Dem Rocket 3.5 19:33:34 10° W 19:55:09 57° S 19:57:08 39° SE
Cosmos 2237 4.1 19:49:57 10° SSW 19:55:39 83° ESE 20:01:24 10° NNE
Cosmos 2263 Rocket 4.2 19:56:24 10° NNE 19:57:20 13° NE 19:57:20 13° NE
Cosmos 2360 Rocket 3.4 19:55:59 10° SW 20:01:15 42° WNW 20:06:33 10° N
BLOCK DM-SL R/B 4.0 19:57:45 10° WSW 20:01:19 39° S 20:01:19 39° S
Resurs 01 Rocket 1.5 20:04:09 82° ENE 20:04:09 82° ENE 20:08:34 10° N
COSMOS 2428 2.5 19:59:32 10° S 20:05:11 73° ESE 20:10:50 10° NNE
SWIFT 3.6 20:02:03 10° W 20:05:54 34° NNW 20:06:37 32° N
Cosmos 1933 4.0 20:05:26 22° SSW 20:07:51 52° W 20:11:47 10° N
Hubble Space Telescope 2.7 20:06:03 10° W 20:09:08 21° SSW 20:09:08 21° SSW
ARIANE 5 R/B 3.6 20:06:10 10° WSW 20:11:02 60° S 20:17:24 37° ESE
ARIANE 5 R/B 3.6 20:06:10 10° WSW 20:11:02 60° S 20:17:25 37° ESE
Cosmos 1315 Rocket 4.5 20:10:24 10° NNW 20:13:57 32° W 20:15:25 24° SW
GPS 2-17 Rocket1 4.4 20:13:25 10° NW 20:16:31 29° N 20:16:31 29° N
Meteosat 1 Rocket2 4.3 20:09:40 10° WNW 20:20:08 85° NNE 20:21:33 63° ESE
DELTA 2 R/B (1) 4.3 20:15:05 10° NNW 20:19:39 40° NNE 20:19:39 40° NNE
SPELTRA 4.1 20:15:51 10° W 20:20:38 88° N 20:24:45 44° E
ALOS 4.4 20:19:54 10° SSW 20:23:35 23° W 20:27:16 10° NW
Cosmos 1655 Rocket 4.3 20:39:18 10° N 20:45:04 65° WNW 20:45:04 65° WNW
